FW0896 Weather Reports


time (UTC)temp
F
wind
direction
speed
knots
gust
knots
rain 1hr
in
rain 24hr
in
rain mn
in
humidity
%
barometer
mb
20260901181558 85 89 0.0 3.5 0.00 0.00 0.00 72 1013.3
20260901180050 86 43 0.0 2.6 0.00 0.00 0.00 71 1013.8
20260901174549 85 49 0.0 1.7 0.00 0.00 0.00 71 1013.8
20260901173057 84 44 0.0 3.5 0.00 0.00 0.00 73 1014.1
20260901171558 85 4 0.0 0.0 0.00 0.00 0.00 73 1014.2
20260901170049 85 63 0.0 2.6 0.00 0.00 0.00 75 1014.2
20260901164552 83 11 0.9 4.3 0.00 0.00 0.00 74 1014.0
20260901163043 83 8 0.0 0.0 0.00 0.00 0.00 79 1013.9
20260901161544 83 345 0.0 1.7 0.00 0.00 0.00 77 1014.0
20260901160040 83 42 0.0 0.9 0.00 0.00 0.00 79 1014.0
20260901154537 82 201 0.0 2.6 0.00 0.00 0.00 79 1014.0
20260901153034 80 202 0.0 2.6 0.00 0.00 0.00 82 1014.0
20260901151540 80 190 0.0 2.6 0.00 0.00 0.00 84 1014.0
20260901150031 79 185 0.0 2.6 0.00 0.00 0.00 86 1014.0
20260901144524 77 202 0.0 0.9 0.00 0.00 0.00 86 1013.9
20260901143024 76 205 0.0 3.5 0.00 0.00 0.00 89 1014.2
20260901141517 74 207 0.0 2.6 0.00 0.00 0.00 91 1014.3
20260901140011 72 192 0.0 0.0 0.00 0.00 0.00 93 1014.4
20260901134511 70 191 0.0 0.0 0.00 0.00 0.00 93 1014.6
20260901133010 70 150 0.0 0.0 0.00 0.00 0.00 92 1014.5
20260901131508 69 150 0.0 0.0 0.00 0.00 0.00 92 1014.5
20260901130008 68 150 0.0 0.0 0.00 0.00 0.00 92 1014.4
20260901124507 69 150 0.0 0.0 0.00 0.00 0.00 91 1014.2
20260901123005 68 150 0.0 0.0 0.00 0.00 0.00 91 1014.1
20260901121504 68 150 0.0 0.0 0.00 0.00 0.00 92 1014.0
20260901120002 68 185 0.0 0.0 0.00 0.00 0.00 92 1013.9
20260901114502 68 197 0.0 0.0 0.00 0.00 0.00 93 1013.7
20260901113002 68 197 0.0 0.0 0.00 0.00 0.00 93 1013.5
20260901111501 67 197 0.0 0.0 0.00 0.00 0.00 94 1013.4
20260901110002 67 197 0.0 0.0 0.00 0.00 0.00 94 1013.3
20260901104502 67 198 0.0 0.0 0.00 0.00 0.00 93 1013.4
20260901103108 67 198 0.0 0.0 0.00 0.00 0.00 94 1013.2
20260901101559 67 198 0.0 0.0 0.00 0.00 0.00 94 1013.1
20260901100110 66 198 0.0 0.0 0.00 0.00 0.00 95 1013.2
20260901094600 66 198 0.0 0.0 0.00 0.00 0.00 96 1013.3
20260901093113 65 198 0.0 0.0 0.00 0.00 0.00 96 1013.3
20260901091607 65 198 0.0 0.0 0.00 0.00 0.00 97 1013.3
20260901090054 65 207 0.0 0.0 0.00 0.00 0.00 96 1013.3
20260901084556 65 221 0.0 0.0 0.00 0.00 0.00 96 1013.4
20260901083059 65 222 0.0 0.0 0.00 0.00 0.00 96 1013.2
20260901081552 65 222 0.0 0.0 0.00 0.00 0.00 96 1013.2
20260901080056 65 226 0.0 0.0 0.00 0.00 0.00 96 1013.1
20260901074549 66 235 0.0 0.0 0.00 0.00 0.00 93 1013.2
20260901073049 68 243 0.0 0.0 0.00 0.00 0.00 93 1013.2
20260901071543 69 243 0.0 0.0 0.00 0.00 0.00 91 1013.3
20260901070045 70 242 0.0 0.0 0.00 0.00 0.00 90 1013.4
20260901064544 70 243 0.0 0.0 0.00 0.00 0.00 90 1013.6
20260901063039 70 243 0.0 0.0 0.00 0.00 0.00 91 1013.5
20260901061537 70 243 0.0 0.0 0.00 0.00 0.00 92 1013.6
20260901060036 69 243 0.0 0.0 0.00 0.00 0.00 92 1013.7
20260901054533 70 242 0.0 0.0 0.00 0.00 0.00 93 1013.5
20260901053032 70 242 0.0 0.0 0.00 0.00 0.00 92 1013.3
20260901051529 71 284 0.0 0.0 0.00 0.00 0.00 89 1013.3
20260901050024 72 359 0.0 0.0 0.00 0.00 0.00 86 1013.0
20260901044523 73 359 0.0 0.0 0.00 0.00 0.00 85 1012.9
20260901043025 73 351 0.0 0.0 0.00 0.00 0.00 86 1012.8
20260901041521 72 258 0.0 0.0 0.00 0.00 0.00 89 1012.7
20260901040025 71 257 0.0 0.0 0.00 0.00 0.00 90 1012.9
20260901034520 72 257 0.0 0.0 0.00 0.00 0.00 88 1012.8
20260901033019 72 311 0.0 0.0 0.00 0.00 0.00 87 1012.7
20260901031518 74 311 0.0 0.0 0.00 0.00 0.00 84 1012.7
20260901030018 75 311 0.0 0.0 0.00 0.00 0.00 83 1012.6
20260901024526 75 311 0.0 0.0 0.00 0.00 0.00 82 1012.6
20260901023019 75 311 0.0 0.0 0.00 0.00 0.00 82 1012.7
20260901021517 77 292 0.0 0.0 0.00 0.00 0.00 81 1012.6
20260901020015 77 290 0.0 0.0 0.00 0.00 0.00 80 1012.6
20260901014513 78 269 0.0 0.0 0.00 0.00 0.00 80 1012.4
20260901013012 78 251 0.0 0.0 0.00 0.00 0.00 79 1012.1
20260901011510 78 251 0.0 0.0 0.00 0.00 0.00 78 1011.9
20260901010012 79 251 0.0 0.0 0.00 0.00 0.00 77 1012.0
20260901004527 79 251 0.0 0.0 0.00 0.00 0.00 79 1011.9
20260901003008 80 251 0.0 0.0 0.00 0.00 0.00 77 1011.8
20260901001519 81 251 0.0 0.0 0.00 0.00 0.00 78 1011.8
20260901000013 81 251 0.0 0.0 0.00 0.00 0.00 75 1011.7
20260831234506 83 251 0.0 0.0 0.00 0.00 0.00 75 1011.8
20260831233005 84 250 0.0 0.0 0.00 0.00 0.00 73 1011.7
20260831231505 84 250 0.0 0.0 0.00 0.00 0.00 76 1011.7
20260831230005 84 250 0.0 0.0 0.00 0.00 0.00 74 1011.6
20260831224504 84 277 0.0 0.0 0.00 0.00 0.00 71 1011.7
20260831223004 86 276 0.0 0.0 0.00 0.00 0.00 73 1011.7
20260831221501 85 297 0.0 0.0 0.00 0.00 0.00 74 1011.5
20260831220104 86 281 0.0 0.9 0.00 0.00 0.00 74 1011.4
20260831214623 86 281 0.0 1.7 0.00 0.00 0.00 77 1011.4
20260831213056 85 20 0.0 3.5 0.00 0.00 0.00 76 1011.4
20260831211555 85 340 0.0 0.0 0.00 0.00 0.00 76 1011.5
20260831210051 84 340 0.0 2.6 0.00 0.00 0.00 80 1011.4
20260831204556 83 1 0.0 2.6 0.00 0.00 0.00 80 1011.3
20260831203051 83 12 0.9 2.6 0.00 0.00 0.00 83 1011.3
20260831201549 82 353 0.9 2.6 0.00 0.00 0.00 84 1011.3
20260831200048 81 330 0.9 3.5 0.00 0.00 0.00 88 1011.2
20260831194543 80 329 0.0 2.6 0.00 0.00 0.00 90 1011.3
20260831193037 78 328 1.7 3.5 0.00 0.00 0.00 91 1010.7
20260831191536 78 325 1.7 3.5 0.00 0.00 0.00 90 1010.9
20260831190053 79 342 1.7 3.5 0.00 0.00 0.00 89 1010.6
20260831184538 79 340 1.7 3.5 0.00 0.00 0.00 90 1010.6
20260831183046 78 329 1.7 4.3 0.00 0.00 0.00 91 1010.5